Weather History for Scottsbluff, NE

Change the Weather History Date:

Saturday, March 10, 2012

  Actual Average Record
Temperature  
Mean Temperature 50 °F 37 °F  
Max Temperature 75 °F 51 °F 80 °F (1972)
Min Temperature 24 °F 22 °F -19 °F (1948)
Degree Days  
Heating Degree Days 15 28  
Month to date heating degree days 251 297  
Since 1 July heating degree days 4900 5209  
Cooling Degree Days 0 0  
Month to date cooling degree days 0 0  
Year to date cooling degree days 0 0  
Moisture  
Dew Point 20 °F    
Average Humidity 37    
Maximum Humidity 66    
Minimum Humidity 7    
Precipitation  
Precipitation 0.00 in 0.03 in 0.80 in (1906)
Month to date precipitation 0.00 0.27  
Year to date precipitation 0.85 1.28  
Snow  
Snow 0.00 in 0.30 in 9.00 in (1906)
Month to date snowfall 0.0 2.5  
Since 1 July snowfall 20.4 30.9  
Snow Depth 0.00 in    
Sea Level Pressure  
Sea Level Pressure 29.89 in    
Wind  
Wind Speed 8 mph (SSE)    
Max Wind Speed 20 mph    
Max Gust Speed 28 mph    
Visibility 10 miles    
Events      
T = Trace of Precipitation, MM = Missing Value Source: NWS Daily Summary

Daily Weather History Graph

Daily Weather History Graph

Search for Another Location

Airport:

Trip Planner

Search our weather history database for the weather conditions in past years. The results will help you decide how hot, cold, wet, or windy it might be!

Date:

Astronomy

Mar. 10, 2012 Rise Set
Actual Time 6:13 AM MST 5:55 PM MST
Civil Twilight 5:46 AM MST 6:23 PM MST
Nautical Twilight 5:13 AM MST 6:56 PM MST
Astronomical Twilight 4:41 AM MST 7:28 PM MST
Moon 9:15 PM MST (3/10) 7:06 AM MST (3/10)
Length of Visible Light 12h 37m
Length of Day
11h 42m
Waning Gibbous, 92% of the Moon is Illuminated
Mar 10
Waning Gibbous
Mar 14
Last Quarter
Mar 22
New
Mar 30
First Quarter
Apr 6
Full

Hourly Weather History & Observations

Time (MST) Temp. Windchill Dew Point Humidity Pressure Visibility Wind Dir Wind Speed Gust Speed Precip Events Conditions
12:53 AM 30.9 °F 23.5 °F 12.9 °F 47% 30.06 in 10.0 mi NE 8.1 mph - N/A   Clear
1:53 AM 32.0 °F 24.8 °F 12.9 °F 45% 30.03 in 10.0 mi East 8.1 mph - N/A   Clear
2:53 AM 30.0 °F 25.2 °F 14.0 °F 51% 30.01 in 10.0 mi East 4.6 mph - N/A   Clear
3:53 AM 28.9 °F 22.8 °F 12.0 °F 49% 29.99 in 10.0 mi East 5.8 mph - N/A   Clear
4:53 AM 25.0 °F 19.3 °F 12.9 °F 60% 30.01 in 10.0 mi ENE 4.6 mph - N/A   Clear
5:53 AM 27.0 °F - 12.0 °F 53% 30.03 in 10.0 mi Calm Calm - N/A   Clear
6:53 AM 28.0 °F - 14.0 °F 56% 30.04 in 10.0 mi Calm Calm - N/A   Clear
7:53 AM 36.0 °F 33.3 °F 15.1 °F 43% 30.02 in 10.0 mi ESE 3.5 mph - N/A   Clear
8:53 AM 42.1 °F - 17.1 °F 37% 29.99 in 10.0 mi Calm Calm - N/A   Clear
9:53 AM 51.1 °F - 19.0 °F 28% 29.95 in 10.0 mi Calm Calm - N/A   Clear
10:53 AM 57.9 °F - 19.9 °F 23% 29.92 in 10.0 mi SSE 4.6 mph - N/A   Clear
11:53 AM 64.9 °F - 18.0 °F 16% 29.87 in 10.0 mi South 6.9 mph - N/A   Clear
12:53 PM 72.0 °F - 14.0 °F 11% 29.84 in 10.0 mi Variable 5.8 mph - N/A   Clear
1:53 PM 73.0 °F - 8.1 °F 8% 29.80 in 10.0 mi SW 12.7 mph 20.7 mph N/A   Clear
2:53 PM 75.0 °F - 6.1 °F 7% 29.78 in 10.0 mi SW 17.3 mph 21.9 mph N/A   Clear
3:53 PM 73.0 °F - 7.0 °F 8% 29.77 in 10.0 mi South 18.4 mph 24.2 mph N/A   Clear
4:53 PM 70.0 °F - 19.0 °F 14% 29.77 in 10.0 mi SSW 9.2 mph - N/A   Clear
5:53 PM 64.0 °F - 26.1 °F 24% 29.78 in 10.0 mi South 9.2 mph - N/A   Clear
6:53 PM 60.1 °F - 30.0 °F 32% 29.80 in 10.0 mi South 12.7 mph - N/A   Clear
7:53 PM 57.0 °F - 35.1 °F 44% 29.81 in 10.0 mi South 12.7 mph - N/A   Clear
8:53 PM 53.1 °F - 35.1 °F 50% 29.82 in 10.0 mi SSE 3.5 mph - N/A   Clear
9:53 PM 52.0 °F - 39.0 °F 61% 29.80 in 10.0 mi South 18.4 mph 25.3 mph N/A   Clear
10:53 PM 50.0 °F - 39.0 °F 66% 29.78 in 10.0 mi South 13.8 mph 25.3 mph N/A   Clear
11:53 PM 48.9 °F - 39.0 °F 69% 29.77 in 10.0 mi SE 13.8 mph 24.2 mph N/A   Clear